Location: *
(28.3744°N, 81.5492°W)
Time: 03:46:35
(UTC+00:00)

Cosmos 2098 Rocket - Pass Details

Date: 15 June 2025
Orbit: 351 x 914 km, 82.9° (Epoch: 11 July)

Event Time Altitude Azimuth Distance (km) Brightness Sun altitude
Rises 08:30:45 0° 344° (NNW) 2,495 6.6 -21.9°
Reaches altitude 10° 08:33:03 10° 335° (NNW) 1,533 5.3 -21.5°
Enters shadow 08:34:15 19° 323° (NW) 1,080 4.4 -21.4°
